Location: West Chester
(39.9610°N, 75.6060°W)
Time: 16:57:18
(UTC-04:00)

ARIANE 6 FM1 Upper Stage - Visible Passes

Search period start: 19 September 2024 00:00
Search period end: 29 September 2024 00:00
Orbit: 566 x 594 km, 62.0° (Epoch: 19 September)

Date Brightness Start Highest point End Pass type
(mag) Time Alt. Az. Time Alt. Az. Time Alt. Az.
19 Sep 4.3 04:55:23 10° NNW 04:59:27 37° NE 05:03:30 10° ESE visible
19 Sep 2.7 20:35:29 10° SSW 20:39:38 54° ESE 20:40:51 39° ENE visible
19 Sep 5.6 22:16:08 10° W 22:17:18 15° WNW 22:17:18 15° WNW visible
20 Sep 6.0 03:23:02 10° NNE 03:24:00 11° NNE 03:24:59 10° NE visible
20 Sep 3.3 04:59:56 10° NNW 05:04:15 58° NE 05:08:33 10° SE visible
20 Sep 2.6 20:40:02 10° SW 20:44:17 89° NW 20:47:28 18° NE visible
20 Sep 5.7 22:22:00 10° WNW 22:23:53 14° NW 22:23:53 14° NW visible
21 Sep 5.7 03:29:13 15° NE 03:29:13 15° NE 03:31:34 10° ENE visible
21 Sep 2.6 05:05:41 17° NW 05:08:58 86° WSW 05:13:20 10° SSE visible
21 Sep 3.4 20:44:50 10° SW 20:49:01 54° NW 20:53:15 10° NNE visible
22 Sep 5.6 03:36:20 14° E 03:36:20 14° E 03:37:21 10° E visible
22 Sep 2.8 05:12:49 44° W 05:13:38 51° WSW 05:17:51 10° SSE visible
22 Sep 4.3 20:49:54 10° WSW 20:53:48 34° NW 20:57:46 10° NNE visible
23 Sep 4.2 05:20:06 22° SSW 05:20:06 22° SSW 05:22:02 10° S visible
23 Sep 3.1 19:15:08 10° S 19:19:09 42° ESE 19:23:14 10° NE visible
23 Sep 5.1 20:55:13 10° W 20:58:39 23° NW 21:02:08 10° NNE visible
24 Sep 2.7 19:19:31 10° SSW 19:23:45 73° ESE 19:28:03 10° NE visible
24 Sep 5.6 21:00:51 10° WNW 21:03:34 16° NW 21:06:19 10° N visible
25 Sep 3.1 19:24:10 10° SW 19:28:25 68° NW 19:32:43 10° NNE visible
25 Sep 5.8 21:07:00 10° NW 21:08:33 12° NNW 21:10:06 10° NNW visible
26 Sep 4.0 19:29:04 10° WSW 19:33:07 42° NW 19:37:14 10° NNE visible
27 Sep 4.8 19:34:12 10° WSW 19:37:54 28° NW 19:41:38 10° NNE visible
28 Sep 5.3 19:39:38 10° W 19:42:44 19° NW 19:45:53 10° N visible
